Weather Roundup
Issued by NWS Springfield, MO

Home | Current Version | Previous Version | Text Only | Print | Product List | Glossary On
Versions: 1 2 3 4 5 6 7 8 9 10 11 12 13 14 15 16 17 18 19 20 21 22 23 24 25 26 27 28 29 30 31 32 33 34 35 36 37 38 39 40 41 42 43 44 45 46 47 48 49 50
737
NZUS99 KSGF 100357
HRRSGF

HOURLY WEATHER
NATIONAL WEATHER SERVICE SPRINGFIELD MO
1000 PM CST TUE FEB 09 2016

......SGF CWA......

CITY           SKY/WX    TMP DP  RH WIND       PRES   REMARKS
SPRINGFIELD    CLEAR     23   3  42 NW15      30.22R WCI  10
JOPLIN         CLEAR     24   6  46 NW9       30.30R WCI  14
WEST PLAINS    CLEAR     25   6  44 NW10G23   30.14R WCI  15
ROLLA          CLEAR     20   7  57 NW16G23   30.12R WCI   6

......SURROUNDING SGF CWA......

CITY           SKY/WX    TMP DP  RH WIND       PRES   REMARKS
CHANUTE        CLEAR     22   9  57 W6        30.31S WCI  14
PARSONS        CLEAR     20   9  62 NW6       30.32F WCI  12
COFFEYVILLE    CLEAR     25   8  48 NW7       30.33F WCI  17
EMPORIA        CLEAR     19   9  65 W5        30.29F WCI  12
HARRISON AR    CLEAR     26   5  40 NW14G28   30.20R WCI  14

......KANSAS AND MISSOURI......

CITY           SKY/WX    TMP DP  RH WIND       PRES   REMARKS
KANSAS CTY INT CLEAR     21   9  59 NW8       30.25S WCI  11
SEDALIA        CLEAR     23   7  50 NW22G30   30.24R WCI   8
ST JOSEPH      MOCLDY    20  10  65 NW8       30.28R WCI  10
ST LOUIS       PTCLDY    22   8  55 NW15G25   30.12R WCI   9
WICHITA        CLOUDY    31  13  47 NE8       30.29F WCI  23
TOPEKA         CLEAR     24   9  52 W5        30.29S WCI  18
OLATHE         CLEAR     21   7  54 NW8       30.27R WCI  11

......TENNESSEE......

CITY           SKY/WX    TMP DP  RH WIND       PRES   REMARKS
MEMPHIS        NOT AVBL
NASHVILLE      FLURRIES  22  11  62 NW9       30.11R WCI  12

......ARKANSAS.......

CITY           SKY/WX    TMP DP  RH WIND       PRES   REMARKS
FAYETTEVILLE   CLEAR     27   9  46 NW15      30.26R WCI  15
FT SMITH       CLEAR     37   7  28 NW15G26   30.28R WCI  28
LITTLE ROCK    CLEAR     38   9  30 NW12      30.22R WCI  30

......OKLAHOMA.......

CITY           SKY/WX    TMP DP  RH WIND       PRES   REMARKS
TULSA          CLEAR     32  16  51 N12       30.33R WCI  23
PONCA CITY     CLOUDY    32  17  54 NE9       30.32S WCI  24
MCALESTER      CLEAR     38  19  46 NW7       30.31R WCI  33
OKLAHOMA CITY  PTCLDY    39  19  44 N7        30.29F WCI  34

......IOWA............

CITY           SKY/WX    TMP DP  RH WIND       PRES   REMARKS
DES MOINES     NOT AVBL
QUAD CITIES    CLEAR     13   3  64 NW10      30.09R WCI   0

......ILLINOIS........

CITY           SKY/WX    TMP DP  RH WIND       PRES   REMARKS
QUINCY         NOT AVBL
CHICAGO        CLOUDY    14   7  73 NW14      29.94S WCI  -1




USA.gov is the U.S. government's official web portal to all federal, state and local government web resources and services.